EHI
17 20 24 18 5 0 0 0 0 0 0 0 0 0 0 0 0 0 1 3 7 9 5 3 4 4 3 2 1 1 0 0 0 0 0 0 0 0 0 0 0 0 0 0 0 0 0 0 0
19 24 23 14 4 0 0 0 0 0 0 0 0 0 0 0 0 0 0 3 8 10 7 7 8 7 4 3 2 1 0 0 0 0 0 0 0 0 0 0 0 0 0 0 0 0 0 0 0
25 26 19 8 2 0 0 0 0 0 0 0 0 0 0 0 0 0 1 3 7 9 9 11 13 12 8 5 3 2 1 0 0 0 0 0 0 0 0 0 0 0 0 0 0 0 0 0 0
31 25 13 4 0 0 0 0 0 0 0 0 0 0 0 0 0 0 1 3 5 8 8 8 11 12 11 9 5 3 2 1 1 1 0 0 0 0 0 0 0 0 0 0 0 0 0 0 0
35 23 8 1 0 0 0 0 0 0 0 0 0 0 0 0 1 1 2 3 5 6 4 4 6 8 9 9 7 4 3 2 2 2 1 0 0 0 0 0 0 0 0 0 0 0 0 0 0
28 17 5 0 0 0 0 0 0 0 0 0 0 0 0 0 1 3 3 4 4 4 3 2 3 3 4 5 5 3 2 1 2 2 1 0 0 0 0 0 0 0 0 0 0 0 0 0 0
13 8 2 0 0 0 0 0 0 0 0 0 0 0 0 0 1 3 3 2 2 2 2 2 1 0 0 1 2 1 0 0 1 1 0 0 0 0 0 0 0 0 0 0 0 0 0 0 0
3 2 0 0 0 0 0 0 0 0 0 0 1 1 0 0 1 1 1 0 1 1 1 1 0 0 0 0 0 0 0 0 0 0 0 0 0 0 0 0 0 0 0 0 0 0 0 0 0
0 0 0 0 0 0 0 0 0 0 0 0 1 1 0 0 0 0 0 0 0 0 0 0 0 0 0 0 0 0 0 0 0 0 1 0 0 0 0 0 0 0 0 1 1 0 0 0 0
0 0 0 0 0 0 0 0 0 0 0 0 1 1 0 0 0 0 0 1 0 0 0 0 0 0 0 0 0 0 0 0 0 0 0 0 0 0 0 0 0 0 0 1 1 0 0 0 0
0 0 0 0 0 0 0 0 0 0 1 1 1 0 0 0 0 0 0 0 0 0 0 0 0 0 0 0 0 0 0 0 0 0 0 0 0 0 0 0 0 0 0 1 1 0 0 0 0
0 0 0 0 0 0 0 0 0 1 2 2 2 1 0 0 0 0 0 0 0 0 0 0 0 0 0 0 0 0 0 0 0 0 0 0 0 0 0 0 0 0 0 0 0 0 0 0 0
0 0 0 0 0 0 0 0 0 1 2 2 2 1 0 0 0 0 0 0 0 0 0 0 0 0 0 0 0 0 0 0 0 0 0 0 0 0 0 0 0 0 0 0 0 0 0 0 0
0 0 0 0 0 0 0 0 1 1 1 1 1 0 0 0 0 0 0 0 0 0 0 0 0 0 0 0 0 0 0 0 0 0 0 0 0 0 0 1 0 0 0 0 0 0 0 0 0
0 0 0 0 0 0 0 1 3 4 2 0 0 0 0 0 0 0 0 0 0 0 0 0 0 0 0 0 0 0 0 0 0 0 0 0 0 0 0 0 0 0 0 0 0 0 0 0 0
0 0 0 0 0 0 0 2 6 6 2 1 1 0 0 0 0 0 0 0 0 0 0 0 0 0 0 0 0 0 0 0 0 0 0 0 0 0 0 0 0 0 0 0 0 0 0 0 0
0 0 0 0 0 0 0 3 7 5 2 2 2 1 0 0 0 0 0 0 0 0 0 0 0 0 0 0 0 0 0 0 0 0 0 0 0 0 0 0 0 0 0 0 0 0 0 0 0
0 0 0 0 0 0 0 3 6 5 2 2 2 1 0 0 0 0 0 0 0 0 0 0 0 0 0 0 0 0 0 0 0 0 0 0 0 0 0 0 0 0 0 0 0 0 1 1 1
0 0 0 1 1 1 0 1 4 5 3 2 1 1 0 0 0 0 0 0 0 0 0 0 0 0 0 0 0 0 0 0 0 0 0 0 0 0 0 0 0 0 0 0 0 0 1 1 2
0 0 0 1 1 1 0 0 1 4 5 3 1 0 0 0 0 0 0 0 0 0 0 0 0 0 0 0 0 0 0 0 0 0 0 0 0 0 0 0 0 0 0 0 0 0 0 1 1
0 0 0 0 0 0 0 0 1 3 5 3 1 0 0 0 0 0 0 0 0 0 0 0 0 0 0 0 0 0 0 0 0 0 0 0 0 0 0 0 0 0 0 0 0 0 0 0 0
0 0 0 0 0 0 0 0 1 2 3 2 0 0 0 0 0 0 0 0 0 0 0 0 0 0 0 0 0 0 0 0 0 0 0 0 0 0 0 0 0 0 0 0 0 0 0 0 0
0 0 0 0 0 0 0 0 0 1 1 0 0 0 0 0 0 0 0 0 0 0 0 0 0 0 0 0 0 0 0 0 0 0 0 0 0 0 0 0 0 0 0 0 0 0 0 0 0
0 0 0 0 0 0 0 0 0 0 0 0 0 0 0 0 0 0 0 0 0 0 0 0 0 0 0 0 0 0 0 0 0 0 0 0 0 0 0 0 0 0 0 0 0 0 0 0 0
0 0 0 0 0 0 0 0 0 0 0 0 0 0 0 0 0 0 0 0 0 0 0 0 0 0 0 0 0 0 0 0 0 0 0 0 0 0 0 0 0 0 0 0 0 0 0 0 0
0 0 0 0 0 0 0 0 0 0 0 0 0 0 0 0 0 0 0 0 0 0 0 0 0 0 0 0 0 0 0 0 0 0 0 0 0 0 0 0 0 0 0 0 0 0 0 0 0
0 0 0 0 0 0 0 0 0 0 0 0 0 0 0 0 0 0 0 0 0 0 0 0 0 0 0 0 0 0 0 0 0 0 0 0 0 0 0 0 0 0 0 0 0 0 0 0 0
0 0 0 0 0 0 0 0 0 0 0 0 0 0 0 0 0 0 0 0 0 0 0 0 0 0 0 0 0 0 0 0 0 0 0 0 0 0 0 0 0 0 0 0 0 0 0 0 0
0 0 0 0 0 0 0 0 0 0 0 0 0 0 0 0 0 0 0 0 0 0 0 0 0 0 0 0 0 0 0 0 0 0 0 0 0 0 0 0 0 0 0 0 0 0 0 0 0
0 0 0 0 0 0 0 0 0 0 0 0 0 0 0 0 0 0 0 0 0 0 0 0 0 0 0 0 0 0 0 0 0 0 0 0 0 0 0 0 0 0 0 0 0 0 0 0 0
Wind_Speed
9 9 6 2 2 1 4 6 8 8 7 9 10 11 13 13 9 7 1 6 8 10 10 9 7 5 4 3 2 2 2 2 2 2 2 2 2 2 3 3 3 3 3 3 3 4 4 4 4
8 6 4 3 2 1 5 6 7 8 7 5 8 12 12 11 10 6 4 5 8 11 10 9 8 6 5 4 3 3 3 3 3 3 3 3 3 3 4 4 4 4 3 3 2 3 3 3 3
10 7 4 3 1 4 5 5 5 8 9 7 8 11 9 7 7 5 4 5 9 11 11 10 10 8 6 5 4 4 4 4 4 4 4 5 5 5 5 5 5 5 4 3 2 2 2 2 2
5 4 4 2 6 9 7 4 5 6 8 9 8 10 8 7 4 4 5 8 10 10 10 10 10 8 7 7 6 5 5 4 4 4 4 5 5 5 5 6 6 5 5 4 3 2 2 3 2
4 3 2 1 6 9 7 7 8 8 9 10 10 10 8 7 6 5 6 8 8 8 7 8 8 7 7 6 5 5 5 5 4 4 4 5 5 6 6 6 6 6 6 5 4 4 3 4 3
3 3 1 2 6 7 7 8 9 8 9 9 8 9 7 6 5 5 6 7 7 6 6 6 7 6 5 5 5 5 5 5 4 5 5 5 5 6 6 7 7 7 7 6 6 5 5 5 4
4 4 2 4 5 5 7 8 9 8 10 10 7 7 7 6 4 4 5 6 6 5 5 3 3 3 4 3 2 2 3 4 5 6 6 6 6 7 8 9 9 8 8 7 7 6 7 6 6
4 4 4 4 5 4 6 7 8 8 9 9 8 7 6 5 4 4 4 5 5 4 4 3 2 2 1 1 3 2 2 4 6 7 7 7 8 8 9 9 10 10 9 9 8 8 8 8 8
5 2 3 4 4 3 4 5 7 6 9 10 11 11 8 5 4 4 4 4 5 5 4 4 4 2 1 2 1 3 5 5 6 6 8 7 4 5 5 8 8 9 9 9 9 9 9 9 10
3 1 3 3 4 4 4 4 4 3 7 8 9 8 6 4 5 5 5 5 5 4 5 5 4 4 3 3 2 1 2 2 4 3 3 3 3 3 5 4 8 9 10 10 10 11 10 8 6
1 2 3 4 5 3 4 4 2 2 4 5 6 6 5 4 4 4 4 4 4 5 5 4 4 4 4 2 1 1 2 2 3 3 3 3 2 3 3 2 3 5 7 5 6 7 5 6 6
0 3 2 4 4 1 2 3 3 5 6 7 7 4 3 3 4 4 4 4 3 4 4 4 5 5 4 4 2 3 2 1 2 2 3 2 1 2 2 2 2 2 2 3 3 3 5 7 7
2 4 3 4 2 1 1 2 3 5 6 6 5 3 2 4 4 4 4 5 4 5 4 4 5 6 5 4 3 4 2 3 3 2 3 3 2 2 2 2 2 2 3 3 4 4 5 5 5
2 3 4 5 4 3 3 3 4 5 6 5 4 3 3 3 3 4 5 6 6 6 5 5 5 5 6 5 4 4 3 3 3 2 3 4 2 2 2 2 2 3 3 4 4 4 4 3 3
4 5 6 7 6 4 3 6 8 9 7 5 4 4 3 1 2 3 5 5 6 6 6 5 5 5 6 5 5 4 4 4 3 3 4 4 4 3 2 2 2 3 3 4 3 3 3 3 3
8 7 6 5 4 5 4 4 7 10 8 5 3 3 3 2 0 3 5 4 5 5 5 5 6 6 6 5 4 4 4 4 3 3 3 4 5 4 3 2 2 3 3 2 2 3 3 3 2
4 6 6 5 8 6 6 4 8 9 7 6 4 3 4 3 2 3 4 4 4 4 4 5 5 5 5 5 4 4 4 4 3 3 3 3 5 5 4 2 3 3 2 2 3 3 3 3 3
3 6 6 4 7 6 6 5 7 10 7 5 4 4 4 2 3 5 4 3 3 3 5 6 5 5 5 4 4 3 4 4 3 3 3 4 3 4 4 3 4 3 2 2 2 3 2 2 2
6 10 7 2 4 3 7 6 5 9 8 6 5 4 2 3 4 6 4 2 3 4 5 5 5 5 4 3 3 3 4 4 3 3 4 4 3 3 3 3 3 3 2 2 3 2 2 2 2
10 10 6 3 4 4 8 8 4 7 7 4 3 1 2 4 3 4 4 3 4 4 4 5 5 5 4 3 3 3 3 3 3 3 3 4 4 3 4 3 3 3 2 2 2 2 1 2 2
9 5 6 5 4 7 9 8 6 8 6 4 2 1 1 2 2 4 4 3 3 3 4 5 4 5 5 5 3 4 3 3 3 3 3 3 4 3 3 3 3 3 2 2 2 2 2 2 2
4 5 5 7 7 6 4 4 5 11 7 6 4 3 2 3 2 2 2 3 3 3 4 5 5 5 5 6 4 5 4 4 4 3 3 3 3 3 3 3 3 3 2 2 3 2 2 2 2
2 2 6 8 8 9 7 6 5 8 6 6 5 4 3 3 2 2 3 3 3 4 4 4 5 5 5 5 5 4 3 3 3 4 4 4 3 4 4 3 3 2 2 2 3 2 2 2 3
1 7 10 9 7 8 4 3 4 4 6 6 5 5 4 3 3 2 3 3 2 3 3 3 3 4 4 5 6 5 4 5 5 5 4 4 3 3 4 4 3 2 2 2 2 2 2 2 3
5 8 5 5 6 3 5 1 5 9 8 5 4 4 4 4 3 2 2 2 2 2 2 3 3 4 4 5 6 6 5 5 5 5 5 4 3 3 3 3 4 3 2 2 2 2 2 2 3
4 6 5 6 4 1 4 2 8 9 7 5 4 4 3 3 3 2 2 2 1 1 2 2 3 3 4 4 5 5 6 4 4 5 5 4 3 3 3 3 4 3 3 3 2 2 2 2 2
5 4 3 5 9 6 4 8 9 6 7 4 3 4 3 3 3 3 2 2 1 1 1 2 3 3 4 4 4 3 4 4 5 5 5 4 4 4 4 4 4 3 3 3 2 1 2 2 2
5 7 4 4 5 5 1 4 6 6 4 3 2 3 3 2 3 3 2 2 1 1 1 1 1 2 2 3 4 4 3 4 4 5 5 5 5 4 4 4 4 4 3 3 1 1 1 1 2
7 6 4 4 4 3 3 4 6 5 4 1 1 2 3 3 2 3 3 2 1 1 0 1 0 1 2 3 4 4 4 4 4 4 5 5 4 4 4 4 4 4 4 3 2 1 1 1 2
3 5 4 4 3 2 2 3 4 5 3 1 1 2 3 3 3 3 3 2 1 0 1 0 0 1 1 2 3 3 4 4 4 5 5 5 4 4 4 4 4 4 4 4 3 2 1 1 1
Wind_Direction
199 214 209 221 237 250 47 47 51 37 40 33 37 59 65 52 43 76 10 16 63 86 104 108 98 89 78 64 37 7 350 334 308 288 282 288 292 304 309 308 317 330 337 349 7 9 9 14 16
222 210 222 234 254 81 63 51 53 50 47 43 52 62 67 60 51 70 25 24 64 74 81 84 84 75 62 46 26 359 336 322 313 304 295 287 282 278 282 285 291 298 305 316 337 357 357 359 10
244 229 242 235 359 68 70 57 67 65 47 45 61 58 53 43 41 49 25 57 75 77 78 75 74 67 59 48 31 13 356 338 322 311 302 292 281 274 275 279 282 287 290 293 307 325 333 333 352
230 231 253 264 71 69 72 66 69 71 59 51 68 73 70 47 46 49 41 60 73 77 83 80 71 68 60 50 38 23 6 351 336 319 303 291 280 272 273 274 275 278 282 281 280 280 285 292 307
233 242 275 9 72 72 65 56 61 62 59 55 70 87 83 67 68 70 64 61 70 73 81 90 82 75 70 59 45 29 9 355 344 331 317 298 286 278 273 272 273 275 273 269 264 263 264 267 277
255 256 283 79 82 76 64 50 58 64 61 55 78 95 87 83 69 74 79 76 78 81 86 103 108 98 87 73 56 34 9 349 331 318 309 299 289 277 269 267 265 266 265 262 260 252 248 247 256
271 282 302 85 89 76 65 53 48 55 53 41 54 92 103 91 91 88 88 89 83 80 77 77 94 112 120 112 95 48 1 328 310 299 290 283 281 274 265 259 254 251 251 252 252 247 243 240 242
278 293 345 37 71 75 64 64 55 47 60 46 39 78 94 95 105 97 94 93 78 64 59 56 52 50 45 171 166 215 258 275 285 284 280 276 271 267 260 255 248 243 243 242 239 239 240 240 240
262 301 14 32 51 78 74 79 79 73 76 71 67 73 82 89 90 71 66 63 57 46 35 18 13 12 337 303 308 237 254 250 266 271 268 265 261 264 258 248 249 243 239 238 234 233 235 238 239
233 27 53 37 57 90 81 62 83 92 86 90 92 95 97 85 67 52 44 37 35 36 31 15 358 348 342 329 337 274 288 255 251 266 274 253 255 261 269 255 246 241 241 241 236 234 233 235 237
322 58 89 82 65 88 108 95 58 74 82 80 94 100 95 88 77 53 42 37 28 35 30 7 353 343 334 317 330 309 279 265 260 270 274 261 262 262 263 253 244 232 232 235 233 228 227 229 230
115 75 68 90 81 61 89 100 78 57 84 92 89 88 98 72 53 49 43 30 19 36 26 10 357 341 332 334 340 290 288 292 287 277 284 275 260 265 263 251 246 232 228 224 225 216 223 234 237
191 130 113 101 135 109 92 102 91 109 109 111 117 125 82 52 27 31 35 17 9 26 16 20 2 351 342 342 322 328 331 326 311 303 291 277 259 257 260 258 241 234 224 219 225 223 235 239 244
121 160 154 159 165 172 178 169 172 157 149 155 165 152 76 49 14 15 30 9 10 17 7 21 5 354 349 349 347 336 325 308 307 316 304 298 286 269 265 258 248 241 234 225 216 225 234 240 245
180 194 186 191 193 169 211 231 195 151 166 185 193 157 118 58 359 31 38 12 11 8 3 11 350 5 354 351 347 328 315 320 323 320 312 315 306 285 276 272 258 244 242 237 223 228 240 238 243
222 226 220 188 203 156 225 278 138 143 176 196 208 160 159 170 7 51 44 19 14 5 356 356 357 1 350 350 329 318 324 335 327 317 316 322 318 310 297 275 266 257 254 242 232 217 230 235 231
236 267 276 180 197 198 220 264 150 165 187 199 209 207 198 182 133 82 59 27 9 359 353 1 9 356 353 343 330 336 336 331 319 326 334 330 326 318 315 304 278 264 257 243 248 229 216 225 220
261 265 269 217 179 223 248 253 176 174 190 212 218 221 214 170 104 84 70 38 2 7 9 10 5 2 359 355 342 340 332 331 328 329 327 331 317 316 314 298 296 290 265 245 247 248 226 219 209
259 266 272 123 117 284 280 269 200 169 180 207 226 237 230 94 88 92 77 46 18 20 18 4 5 1 3 358 339 334 329 325 318 316 321 321 311 309 303 300 307 304 280 256 250 253 238 223 196
255 269 305 65 90 306 288 281 233 160 175 190 232 280 15 67 38 80 74 46 30 18 16 5 3 358 1 346 329 315 317 308 307 314 321 326 324 316 308 310 309 303 291 275 264 259 229 233 193
258 306 350 341 315 259 263 265 201 146 151 156 182 164 47 73 22 45 52 44 30 24 19 5 359 357 360 347 349 337 328 322 331 327 327 323 315 313 305 307 303 295 289 276 265 250 224 229 230
316 35 342 306 290 281 254 293 158 143 160 173 172 149 118 91 62 65 60 46 24 32 27 5 4 6 2 351 356 341 337 338 327 327 323 321 325 331 322 310 301 292 283 282 271 253 230 214 224
27 328 284 281 280 279 252 255 135 145 159 142 129 116 104 103 86 66 77 65 31 35 29 7 2 9 360 343 330 322 348 335 325 332 330 332 334 335 330 321 302 289 278 273 273 271 247 224 218
301 263 253 246 256 260 238 251 114 112 88 94 106 115 119 108 95 72 75 84 50 37 25 4 7 4 350 337 335 349 354 342 337 339 342 336 329 331 344 339 323 313 304 289 276 269 250 238 229
243 272 272 230 219 210 107 186 83 90 80 76 83 94 95 107 107 91 67 82 61 36 18 356 5 2 356 346 345 350 355 350 345 346 335 333 333 336 345 341 325 324 320 306 295 280 260 247 235
253 279 301 310 314 39 158 158 100 98 91 92 103 106 118 139 129 127 111 100 81 40 20 358 6 355 347 338 347 357 358 354 344 336 332 337 330 331 343 330 321 317 317 311 311 293 276 257 245
287 270 335 312 291 281 183 125 116 124 137 146 149 142 164 157 146 148 136 126 108 66 31 15 2 345 342 343 349 358 351 349 340 338 339 334 332 338 344 327 320 318 319 312 311 291 283 282 251
289 326 306 269 305 302 234 127 125 141 130 133 159 155 147 144 150 142 135 127 118 117 112 60 340 328 335 345 348 354 354 356 343 337 342 343 337 339 332 331 332 332 328 314 304 288 272 289 275
198 224 240 277 281 297 342 64 75 90 83 66 73 109 124 136 143 137 134 125 117 110 158 169 244 353 6 1 350 356 357 353 346 341 347 343 339 341 338 340 338 337 336 331 329 324 327 298 294
278 274 275 272 302 283 283 101 98 102 112 125 89 109 126 132 142 146 138 135 128 163 289 313 28 47 29 356 343 359 352 354 352 348 346 338 338 337 340 341 340 341 341 336 335 323 314 299 297